Tracking 19149 objects as of 22-Apr-2018
HD Live streaming from Space Station
objects crossing your sky now

NIMBUS 2 DEB

Track NIMBUS 2 DEB now!
10-day predictions


NORAD ID: 37888
Int'l Code: 1966-040AT
Perigee: 1,075.3 km
Apogee: 1,155.5 km
Inclination: 100.6 °
Period: 107.4 minutes
Semi major axis: 7486 km
RCS: 0.036 m2 (small)
Launch date: May 15, 1966
Source: United States (US)
Launch site: AIR FORCE WESTERN TEST RANGE (AFWTR)

Note: This is SATELLITE DEBRIS
aabbcc
Your satellite tracking list
Your tracking list is empty




NASA's NSSDC Master Catalog

Two Line Element Set (TLE):
1 37888U 66040AT  18112.15600978  .00000621  00000-0  12148-2 0  9996
2 37888 100.6443 305.3070 0053582  99.8986  16.8004 13.40280007436719
Source of the keplerian elements: AFSPC